• Join FlightAware (Why Join?)
  • Login
  • US Flag 
04:26AM EST


 

Airport Tracker/Info


-or-


 

Live Flight TrackerFlight Track Log ✈ VRT51 ✈ 12-Aug-2013 ✈ KERI - KBNA

Flight Track Log - Related Links

Times and Time Zones

All times are in EDT time to prevent confusion due to time zone crossing. See the VRT51 flight status page for this flight to view local times or setup timezone preferences in your user account.

Time Position Orientation Groundspeed Altitude Reporting Facility
EDT Latitude Longitude Course Direction KTS MPH feet Rate Location/Type
02:35PM 41.9972 -80.2814 217° Southwest 232 267 5,600  Level Cleveland Center
02:36PM 41.9325 -80.3458 217° Southwest 266 306 9,100 3,100 Climbing Cleveland Center
02:37PM 41.8661 -80.4131 217° Southwest 295 339 11,800 2,874 Climbing Cleveland Center
02:38PM 41.7972 -80.4828 217° Southwest 312 359 14,800 3,000 Climbing Cleveland Center
02:39PM 41.7306 -80.5525 218° Southwest 312 359 17,800 2,500 Climbing Cleveland Center
02:40PM 41.6578 -80.6247 217° Southwest 322 371 19,800 2,000 Climbing Cleveland Center
02:41PM 41.5806 -80.7025 217° Southwest 344 396 21,800 2,083 Climbing Cleveland Center
02:42PM 41.4908 -80.7911 217° Southwest 361 415 24,000 2,350 Climbing Cleveland Center
02:43PM 41.4072 -80.8767 218° Southwest 377 434 26,500 2,521 Climbing Cleveland Center
02:44PM 41.3194 -80.9647 217° Southwest 388 447 29,000 2,479 Climbing Cleveland Center
02:45PM 41.2336 -81.0497 217° Southwest 387 445 31,500 2,000 Climbing Cleveland Center
02:46PM 41.1497 -81.1319 216° Southwest 387 445 33,000 756 Climbing Cleveland Center
02:47PM 41.0575 -81.2219 216° Southwest 405 466 33,000  Level Cleveland Center
02:48PM 40.9717 -81.3064 217° Southwest 423 487 33,000 893 Level Cleveland Center
02:49PM 40.8794 -81.3986 217° Southwest 423 487 34,800 1,850 Climbing Cleveland Center
02:50PM 40.7911 -81.4881 217° Southwest 417 480 36,700 1,581 Climbing Cleveland Center
02:52PM 40.6050 -81.6669 216° Southwest 383 441 39,700 1,277 Climbing Indianapolis Center
02:53PM 40.5175 -81.7517 216° Southwest 386 444 40,700 976 Climbing Indianapolis Center
02:54PM 40.4294 -81.8361 216° Southwest 387 445 41,700 927 Climbing Indianapolis Center
02:55PM 40.3439 -81.9206 217° Southwest 383 441 42,600 629 Climbing Indianapolis Center
02:56PM 40.2569 -82.0017 215° Southwest 381 438 43,000 195 Climbing Indianapolis Center
02:57PM 40.1683 -82.0886 217° Southwest 389 448 43,000  Level Indianapolis Center
02:58PM 40.0767 -82.1786 217° Southwest 405 466 43,000  Level Indianapolis Center
02:59PM 39.9850 -82.2639 215° Southwest 404 465 43,000  Level Indianapolis Center
03:00PM 39.8947 -82.3481 216° Southwest 394 453 43,000  Level Indianapolis Center
03:01PM 39.8056 -82.4322 216° Southwest 395 455 43,000  Level Indianapolis Center
03:02PM 39.6989 -82.5333 216° Southwest 396 456 43,000  Level Indianapolis Center
03:03PM 39.6106 -82.6158 216° Southwest 393 452 43,000  Level Indianapolis Center
03:04PM 39.5222 -82.7003 216° Southwest 396 456 43,000  Level Indianapolis Center
03:05PM 39.4333 -82.7833 216° Southwest 396 456 43,000  Level Indianapolis Center
03:06PM 39.3444 -82.8647 215° Southwest 393 452 43,000  Level Indianapolis Center
03:07PM 39.2558 -82.9481 216° Southwest 393 452 43,000  Level Indianapolis Center
03:08PM 39.1661 -83.0289 215° Southwest 394 453 43,000  Level Indianapolis Center
03:09PM 39.0608 -83.1267 216° Southwest 391 450 43,000  Level Indianapolis Center
03:10PM 38.9725 -83.2089 216° Southwest 392 451 43,000  Level Indianapolis Center
03:11PM 38.8794 -83.2925 215° Southwest 392 451 43,000  Level Indianapolis Center
03:13PM 38.7908 -83.3736 216° Southwest 393 452 43,000 -387 Level Indianapolis Center
03:14PM 38.7006 -83.4547 215° Southwest 397 457 42,200 -968 Descending Indianapolis Center
03:15PM 38.6092 -83.5383 216° Southwest 401 461 41,000 -1,171 Descending Indianapolis Center
03:16PM 38.5197 -83.6208 216° Southwest 398 458 39,800 -1,317 Descending Indianapolis Center
03:17PM 38.4167 -83.7122 215° Southwest 390 449 38,300 -1,355 Descending Indianapolis Center
03:18PM 38.3278 -83.7908 215° Southwest 389 448 37,000 -1,268 Descending Indianapolis Center
03:19PM 38.2369 -83.8722 215° Southwest 396 456 35,700 -976 Descending Indianapolis Center
03:20PM 38.1461 -83.9536 215° Southwest 398 458 35,000 -339 Descending Indianapolis Center
03:21PM 38.0553 -84.0336 215° Southwest 400 460 35,000  Level Indianapolis Center
03:22PM 37.9594 -84.1197 215° Southwest 416 479 35,000 -537 Level Indianapolis Center
03:23PM 37.8467 -84.2189 215° Southwest 423 487 33,900 -1,258 Descending Indianapolis Center
03:24PM 37.7517 -84.3025 215° Southwest 416 479 32,400 -919 Descending Indianapolis Center
03:25PM 37.6572 -84.3847 215° Southwest 415 478 32,000 -195 Descending Indianapolis Center
03:26PM 37.5592 -84.4706 215° Southwest 426 490 32,000  Level Indianapolis Center
03:27PM 37.4578 -84.5597 215° Southwest 440 506 32,000 -97 Level Indianapolis Center
03:28PM 37.3589 -84.6436 214° Southwest 433 498 31,800 -927 Descending Indianapolis Center
03:29PM 37.2431 -84.7442 215° Southwest 433 498 30,100 -1,707 Descending Indianapolis Center
03:30PM 37.1417 -84.8311 214° Southwest 439 505 28,300 -1,887 Descending Indianapolis Center
03:31PM 37.0356 -84.9225 215° Southwest 438 504 26,200 -2,000 Descending Indianapolis Center
03:32PM 36.9367 -85.0114 216° Southwest 439 505 24,200 -1,951 Descending Indianapolis Center
03:33PM 36.8733 -85.1356 238° Southwest 428 493 22,200 -1,065 Descending Indianapolis Center
03:34PM 36.8147 -85.2653 241° Southwest 428 493 22,000 -341 Descending Indianapolis Center
03:35PM 36.7569 -85.3869 239° Southwest 411 473 21,500 -1,220 Descending Indianapolis Center
03:36PM 36.7017 -85.5039 240° Southwest 394 453 19,500 -2,081 Descending Indianapolis Center
03:37PM 36.6381 -85.6369 239° Southwest 377 434 17,200 -2,049 Descending Indianapolis Center
03:38PM 36.5864 -85.7467 240° Southwest 371 427 15,300 -1,805 Descending Indianapolis Center
03:39PM 36.5414 -85.8439 240° Southwest 370 426 13,500 -1,984 Descending Indianapolis Center
03:40PM 36.4797 -85.9722 239° Southwest 368 423 11,200 -1,707 Descending Indianapolis Center
03:41PM 36.4308 -86.0733 239° Southwest 343 395 10,000 -537 Descending Indianapolis Center
03:42PM 36.3878 -86.1739 242° Southwest 329 379 10,100 -263 Climbing Indianapolis Center
03:43PM 36.3642 -86.2669 253° West 325 374 9,500 -1,393 Descending Memphis Center
03:44PM 36.3464 -86.3581 256° West 293 337 7,500 -2,050 Descending Memphis Center
03:45PM 36.3283 -86.4467 256° West 273 314 5,400 -2,050 Descending Memphis Center
03:46PM 36.3081 -86.5300 253° West 263 303 3,400 -1,200 Descending Memphis Center
03:47PM 36.2853 -86.6083 250° West 263 303 3,000 -250 Descending Memphis Center
03:48PM 36.2217 -86.6394 202° Southwest 239 275 2,900 -700 Descending Memphis Center
03:49PM 36.1639 -86.6628 198° South 227 261 1,600 -1,050 Descending Memphis Center
03:50PM 36.1289 -86.6772 198° South 191 220 800 -450 Descending Memphis Center
03:51PM 36.0733 -86.7028 200° South 183 211 700 -100 Descending Memphis Center